Location: Newark
(58.9986°N, 38.5006°E)
Time: 15:43:14
(UTC+00:00)

Transit 2A - All Passes

Search period start: 23 April 2021 00:00
Search period end: 03 May 2021 00:00
Orbit: 602 x 957 km, 66.7° (Epoch: 22 April)

Date Brightness Start Highest point End Pass type
(mag) Time Alt. Az. Time Alt. Az. Time Alt. Az.
23 Apr - 02:52:24 10° SE 02:53:52 11° ESE 02:55:20 10° E daylight
23 Apr - 04:31:40 10° SSW 04:36:06 51° SE 04:40:21 10° NE daylight
23 Apr - 06:14:56 10° WSW 06:19:18 49° NNW 06:23:33 10° NE daylight
23 Apr - 07:59:19 10° WNW 08:03:14 30° N 08:07:08 10° ENE daylight
23 Apr - 09:43:08 10° NW 09:47:17 40° NNE 09:51:30 10° E daylight
23 Apr - 11:26:20 10° NW 11:30:42 73° SW 11:35:14 10° SE daylight
23 Apr - 13:10:17 10° WNW 13:13:11 17° WSW 13:16:11 10° SSW daylight
24 Apr - 03:57:46 10° SSW 04:01:59 38° SE 04:06:04 10° ENE daylight
24 Apr - 05:40:35 10° WSW 05:45:01 59° NNW 05:49:21 10° NE daylight
24 Apr - 07:24:54 10° WNW 07:28:51 31° N 07:32:48 10° NE daylight
24 Apr - 09:08:53 10° NW 09:12:57 36° NNE 09:17:03 10° E daylight
24 Apr - 10:52:08 10° NW 10:56:31 88° NE 11:01:05 10° SE daylight
24 Apr - 12:35:43 10° WNW 12:39:13 23° WSW 12:42:49 10° S daylight
25 Apr - 03:24:00 10° S 03:27:57 29° ESE 03:31:45 10° ENE daylight
25 Apr - 05:06:16 10° WSW 05:10:47 73° NW 05:15:09 10° NE daylight
25 Apr - 06:50:28 10° WNW 06:54:29 33° NNW 06:58:28 10° NE daylight
25 Apr - 08:34:36 10° NW 08:38:35 33° NNE 08:42:37 10° ENE daylight
25 Apr - 10:17:56 10° NW 10:22:19 71° NE 10:26:50 10° ESE daylight
25 Apr - 12:01:19 10° WNW 12:05:11 30° WSW 12:09:12 10° S daylight
26 Apr - 02:50:25 10° SSE 02:53:55 22° ESE 02:57:19 10° ENE daylight
26 Apr - 04:32:03 10° SW 04:36:34 89° SSE 04:40:57 10° NE daylight
26 Apr - 06:16:01 10° W 06:20:08 36° NNW 06:24:12 10° NE daylight
26 Apr - 08:00:18 10° NW 08:04:13 31° N 08:08:10 10° ENE daylight
26 Apr - 09:43:45 10° NW 09:48:04 58° NNE 09:52:31 10° ESE daylight
26 Apr - 11:27:00 10° WNW 11:31:07 40° SW 11:35:25 10° SSE daylight
27 Apr - 02:17:05 10° SSE 02:19:56 17° ESE 02:22:43 10° ENE daylight
27 Apr - 03:57:53 10° SW 04:02:23 70° SE 04:06:45 10° NE daylight
27 Apr - 05:41:35 10° W 05:45:48 41° NNW 05:49:57 10° NE daylight
27 Apr - 07:25:57 10° WNW 07:29:50 30° N 07:33:45 10° ENE daylight
27 Apr - 09:09:32 10° NW 09:13:47 48° NNE 09:18:09 10° ESE daylight
27 Apr - 10:52:44 10° NW 10:57:01 53° SW 11:01:29 10° SSE daylight
27 Apr - 12:37:32 10° W 12:39:15 12° WSW 12:41:02 10° SW daylight
28 Apr - 01:44:16 10° SE 01:46:01 12° ESE 01:47:44 10° E daylight
28 Apr - 03:23:51 10° SSW 03:28:15 54° SE 03:32:31 10° NE daylight
28 Apr - 05:07:10 10° WSW 05:11:30 47° NNW 05:15:43 10° NE daylight
28 Apr - 06:51:33 10° WNW 06:55:27 30° N 06:59:22 10° ENE daylight
28 Apr - 08:35:19 10° NW 08:39:29 41° NNE 08:43:45 10° E daylight
28 Apr - 10:18:30 10° NW 10:22:52 70° SW 10:27:27 10° SE daylight
28 Apr - 12:02:32 10° WNW 12:05:19 17° WSW 12:08:13 10° SSW daylight
29 Apr - 02:49:55 10° SSW 02:54:10 40° SE 02:58:15 10° ENE daylight
29 Apr - 04:32:48 10° WSW 04:37:12 57° NNW 04:41:31 10° NE daylight
29 Apr - 06:17:08 10° WNW 06:21:04 31° N 06:25:00 10° ENE daylight
29 Apr - 08:01:05 10° NW 08:05:09 37° NNE 08:09:19 10° E daylight
29 Apr - 09:44:18 10° NW 09:48:42 88° SW 09:53:18 10° SE daylight
29 Apr - 11:27:56 10° WNW 11:31:21 22° WSW 11:34:54 10° SSW daylight
30 Apr - 02:16:07 10° S 02:20:05 31° ESE 02:23:56 10° ENE daylight
30 Apr - 03:58:29 10° WSW 04:02:57 70° NW 04:07:19 10° NE daylight
30 Apr - 05:42:42 10° WNW 05:46:41 33° NNW 05:50:41 10° NE daylight
30 Apr - 07:26:48 10° NW 07:30:48 33° NNE 07:34:52 10° E daylight
30 Apr - 09:10:06 10° NW 09:14:29 74° NE 09:19:04 10° ESE daylight
30 Apr - 10:53:30 10° WNW 10:57:20 29° WSW 11:01:19 10° S daylight
01 May - 01:42:30 10° S 01:46:04 23° ESE 01:49:32 10° ENE daylight
01 May - 03:24:15 10° SW 03:28:44 87° NW 03:33:07 10° NE daylight
01 May - 05:08:15 10° W 05:12:20 35° NNW 05:16:24 10° NE daylight
01 May - 06:52:30 10° NW 06:56:26 31° N 07:00:25 10° ENE daylight
01 May - 08:35:55 10° NW 08:40:14 60° NNE 08:44:46 10° ESE daylight
01 May - 10:19:10 10° WNW 10:23:16 38° SW 10:27:34 10° SSE daylight
02 May - 01:09:07 10° SSE 01:12:05 17° ESE 01:14:58 10° ENE daylight
02 May - 02:50:05 10° SW 02:54:34 74° SE 02:58:55 10° NE daylight
02 May - 04:33:49 10° W 04:37:59 40° NNW 04:42:08 10° NE daylight
02 May - 06:18:09 10° WNW 06:22:02 30° N 06:26:00 10° ENE daylight
02 May - 08:01:43 10° NW 08:05:59 50° NNE 08:10:25 10° ESE daylight
02 May - 09:44:54 10° NW 09:49:10 50° SW 09:53:40 10° SSE daylight
02 May - 11:29:54 10° W 11:31:24 11° WSW 11:32:55 10° SW daylight
